[[{"header":{"parameterUnit":"m.s-1","parameterCategory":1,"la1":30.2991,"la2":30.254,"lo1":-89.0895,"lo2":-89.0444,"dy":0.0017,"dx":0.0017,"nx":28,"ny":28,"refTime":"2025-07-06T09:00:00:Z","depth":0,"parameterNumber":2,"parameterNumberName":"U-component_of_WINDS"},"data":[0,0,0,0,0,0,0,0,0,0,0,0,0,0,0,0,0,0,0,0,0,0,0,0,0,0,0,0,0,0,0,0,0,0,0,0,0,0,0,0,0,0,0,0,0,0,0,0,0,0,0,0,0,0,0,0,0,0,-0.59,-0.5899,0,-0.5805,-0.5804,-0.5803,-0.5722,-0.5721,-0.572,-0.5719,-0.5625,-0.5623,-0.5621,0,0,0,0,0,0,0,0,0,0,0,0,0,-0.6011,-0.6009,-0.59,-0.5899,-0.5898,-0.5805,-0.5804,-0.5803,-0.5722,-0.5721,-0.572,-0.5719,-0.5625,-0.5623,-0.5621,0,0,0,0,0,0,0,0,0,0,0,0,0,-0.5944,-0.6009,-0.59,-0.5846,-0.584,-0.5806,-0.5804,-0.5802,-0.5722,-0.5721,-0.5719,-0.5718,-0.5626,-0.5623,-0.5621,-0.5633,0,0,-0.5613,-0.5612,0,0,0,0,0,0,0,0,-0.5948,-0.594,-0.5855,-0.585,-0.5843,-0.5774,-0.5808,-0.5746,-0.5723,-0.5767,-0.5719,-0.5717,-0.5675,-0.5669,-0.5654,-0.5629,-0.5625,-0.5613,-0.5611,-0.561,-0.561,0,0,0,0,0,0,0,-0.5953,-0.5944,-0.5862,-0.5854,-0.5847,-0.5827,-0.5816,-0.5796,-0.573,-0.5763,-0.5757,-0.5747,-0.5672,-0.5657,-0.5651,-0.5623,-0.5613,-0.5611,-0.5609,-0.5608,-0.56,-0.5601,0,0,0,0,0,0,-0.5966,-0.5948,-0.5866,-0.586,-0.5893,-0.5826,-0.5813,-0.5798,-0.573,-0.5719,-0.5748,-0.5743,-0.5662,-0.5654,-0.5648,-0.5655,-0.561,-0.5608,-0.5607,-0.5599,-0.56,-0.5602,0,0,0,0,0,0,-0.5968,-0.5959,-0.5869,-0.5902,-0.5889,-0.5825,-0.5808,-0.5796,-0.5781,-0.5719,-0.5707,-0.5745,-0.566,-0.5651,-0.5636,-0.5651,-0.5607,-0.5605,-0.5597,-0.5599,-0.5601,-0.5673,0,0,0,0,0,0,-0.5972,-0.5961,-0.5965,-0.5903,-0.5888,-0.586,-0.5809,-0.5796,-0.5777,-0.577,-0.5712,-0.5702,-0.5659,-0.5641,-0.5634,-0.5647,-0.5603,-0.5596,-0.5598,-0.56,-0.5669,-0.5677,-0.5684,0,0,0,0,0,-0.5976,-0.599,-0.5965,-0.5956,-0.5891,-0.5861,-0.5852,-0.5802,-0.5778,-0.5782,-0.5741,-0.5703,-0.5651,-0.564,-0.5632,-0.5644,-0.5594,-0.5597,-0.56,-0.5665,-0.5675,-0.5684,0,0,0,0,0,0,-0.6056,-0.5981,-0.5953,-0.5947,-0.5911,-0.5847,-0.585,-0.5814,-0.5785,-0.578,-0.5719,-0.5707,-0.5698,-0.567,-0.5659,-0.5651,-0.5617,-0.5619,-0.567,-0.5679,-0.5686,-0.5693,-0.5601,0,0,0,0,0,-0.6073,-0.6054,-0.5989,-0.599,-0.5973,-0.5915,-0.59,-0.5864,-0.5824,-0.5809,-0.5767,-0.5731,-0.5706,-0.5691,-0.5665,-0.5664,-0.565,-0.5669,-0.5676,-0.5683,-0.5684,-0.568,-0.5687,-0.5611,-0.5611,-0.5611,0,0,-0.6108,-0.6064,-0.6056,-0.6005,-0.5973,-0.5954,-0.5903,-0.5886,-0.5871,-0.5807,-0.5789,-0.5758,-0.5713,-0.5705,-0.5699,-0.5681,-0.5702,-0.5686,-0.5692,-0.569,-0.5683,-0.5691,-0.5697,-0.5613,-0.5613,-0.5612,0,0,-0.6161,-0.6127,-0.6123,-0.6091,-0.6042,-0.6003,-0.6002,-0.5943,-0.5919,-0.5901,-0.5851,-0.5833,-0.5792,-0.5761,-0.574,-0.578,-0.5743,-0.5773,-0.5812,-0.5808,-0.5814,-0.5819,-0.5831,-0.5837,-0.5775,-0.5775,-0.5775,0,-0.6211,-0.618,-0.6125,-0.611,-0.6089,-0.6028,-0.6022,-0.5995,-0.5941,-0.5927,-0.5907,-0.5852,-0.5818,-0.58,-0.581,-0.5795,-0.5791,-0.5779,-0.5818,-0.5822,-0.5826,-0.5837,-0.5842,-0.5779,-0.5778,-0.5778,-0.5778,0,-0.6243,-0.6222,-0.6225,-0.6172,-0.6151,-0.6141,-0.6084,-0.6069,-0.6035,-0.5998,-0.5978,-0.5935,-0.5897,-0.5891,-0.5858,-0.5868,-0.5858,-0.5829,-0.5794,-0.5838,-0.5847,-0.5851,-0.5784,-0.5783,-0.5782,-0.5781,0,0,-0.6345,-0.626,-0.6262,-0.6236,-0.6177,-0.616,-0.6147,-0.6109,-0.6097,-0.6061,-0.6048,-0.6013,-0.5985,-0.5961,-0.5924,-0.5921,-0.5952,-0.5891,-0.5889,-0.5903,-0.5959,-0.5981,-0.5986,-0.5928,-0.5929,-0.5929,-0.5962,0,-0.6388,-0.636,-0.6309,-0.6297,-0.6277,-0.6218,-0.6206,-0.6168,-0.6133,-0.611,-0.6071,-0.6047,-0.6012,-0.5997,-0.5991,-0.595,-0.5963,-0.5947,-0.5914,-0.5914,-0.5926,-0.5991,-0.6015,-0.6048,-0.5966,-0.5966,-0.5967,0,-0.6434,-0.64,-0.6386,-0.6326,-0.6315,-0.6306,-0.6266,-0.6245,-0.6201,-0.6175,-0.6147,-0.6106,-0.6088,-0.6057,-0.6031,-0.6021,-0.6005,-0.5982,-0.5982,-0.5976,-0.5942,-0.5986,-0.6058,-0.6062,-0.5972,-0.5972,-0.5971,0,-0.6508,-0.6459,-0.6443,-0.6423,-0.6353,-0.6347,-0.6318,-0.6272,-0.6252,-0.6217,-0.6203,-0.6168,-0.6148,-0.6121,-0.6071,-0.6053,-0.605,-0.6015,-0.6027,-0.6028,-0.6029,-0.6029,-0.6097,-0.6021,-0.6021,-0.602,-0.602,0,-0.656,-0.6554,-0.6475,-0.6465,-0.6456,-0.6397,-0.6389,-0.6354,-0.6314,-0.6296,-0.6243,-0.6228,-0.6163,-0.614,-0.61,-0.6084,-0.6076,-0.6054,-0.6043,-0.6058,-0.606,-0.6046,-0.6041,-0.6022,-0.6021,-0.6021,-0.6021,0,-0.6641,-0.6588,-0.6567,-0.6502,-0.6485,-0.6481,-0.6424,-0.6413,-0.6373,-0.6352,-0.6343,-0.6282,-0.6251,-0.6198,-0.6154,-0.6127,-0.6118,-0.6101,-0.6132,-0.6126,-0.6141,-0.6139,-0.62,-0.6205,-0.6127,-0.6128,-0.6129,0,-0.6678,-0.6671,-0.6604,-0.6587,-0.656,-0.6535,-0.6513,-0.6455,-0.6434,-0.6382,-0.6376,-0.6341,-0.631,-0.6265,-0.6216,-0.6181,-0.6162,-0.6185,-0.6156,-0.617,-0.616,-0.616,-0.6158,-0.6192,-0.6193,-0.6194,-0.6195,0,-0.6747,-0.6721,-0.6691,-0.6652,-0.6627,-0.6594,-0.6558,-0.6548,-0.6481,-0.6461,-0.6428,-0.6404,-0.6357,-0.6323,-0.628,-0.625,-0.6211,-0.6204,-0.6205,-0.6219,-0.6237,-0.6226,-0.6149,-0.6203,-0.6202,-0.6202,-0.6201,-0.6201,-0.6805,-0.6796,-0.6746,-0.6715,-0.6681,-0.6648,-0.6633,-0.6591,-0.6562,-0.6519,-0.6486,-0.6456,-0.6409,-0.6348,-0.6319,-0.6295,-0.6277,-0.6279,-0.6279,-0.6279,-0.6284,-0.6242,-0.6287,-0.6287,-0.6286,-0.6286,-0.6286,0,-0.6871,-0.6836,-0.6807,-0.6757,-0.6732,-0.6696,-0.6654,-0.6635,-0.6609,-0.6569,-0.6538,-0.65,-0.6466,-0.6414,-0.6376,-0.6366,-0.6347,-0.6358,-0.6357,-0.635,-0.6303,-0.6306,-0.6373,-0.6373,-0.6373,-0.6373,-0.6373,-0.6373,-0.6902,-0.6882,-0.685,-0.6813,-0.6778,-0.6746,-0.6725,-0.6694,-0.6661,-0.662,-0.6591,-0.6557,-0.6512,-0.6469,-0.6436,-0.6421,-0.6409,-0.6425,-0.6405,-0.6362,-0.6354,-0.6346,-0.6348,-0.6424,-0.6424,-0.6454,-0.6454,-0.6455]},{"header":{"parameterUnit":"m.s-1","parameterCategory":1,"la1":30.2991,"la2":30.254,"lo1":-89.0895,"lo2":-89.0444,"dy":0.0017,"dx":0.0017,"nx":28,"ny":28,"refTime":"2025-07-06T09:00:00:Z","depth":0,"parameterNumber":3,"parameterNumberName":"V-component_of_WINDS"},"data":[0,0,0,0,0,0,0,0,0,0,0,0,0,0,0,0,0,0,0,0,0,0,0,0,0,0,0,0,0,0,0,0,0,0,0,0,0,0,0,0,0,0,0,0,0,0,0,0,0,0,0,0,0,0,0,0,0,0,-0.7146,-0.7146,0,-0.716,-0.716,-0.716,-0.7189,-0.719,-0.719,-0.7191,-0.7202,-0.7202,-0.7202,0,0,0,0,0,0,0,0,0,0,0,0,0,-0.7144,-0.7144,-0.7146,-0.7146,-0.7146,-0.716,-0.716,-0.716,-0.7189,-0.719,-0.719,-0.7191,-0.7202,-0.7202,-0.7202,0,0,0,0,0,0,0,0,0,0,0,0,0,-0.715,-0.7144,-0.7146,-0.7163,-0.7164,-0.716,-0.716,-0.716,-0.7189,-0.719,-0.7191,-0.7191,-0.7203,-0.7202,-0.7202,-0.7182,0,0,-0.7201,-0.7201,0,0,0,0,0,0,0,0,-0.7149,-0.715,-0.716,-0.7161,-0.7163,-0.7174,-0.7163,-0.7167,-0.7189,-0.7179,-0.7191,-0.7192,-0.7192,-0.7193,-0.7193,-0.7182,-0.7183,-0.7201,-0.72,-0.72,-0.72,0,0,0,0,0,0,0,-0.7149,-0.7149,-0.7151,-0.716,-0.7162,-0.7169,-0.7171,-0.7164,-0.718,-0.718,-0.7182,-0.7184,-0.7193,-0.7193,-0.7193,-0.7183,-0.7201,-0.72,-0.72,-0.72,-0.7156,-0.7155,0,0,0,0,0,0,-0.7147,-0.7149,-0.7151,-0.7152,-0.7159,-0.7168,-0.717,-0.7169,-0.7181,-0.7183,-0.7183,-0.7185,-0.7193,-0.7194,-0.7194,-0.717,-0.72,-0.72,-0.72,-0.7157,-0.7155,-0.7154,0,0,0,0,0,0,-0.7146,-0.7146,-0.715,-0.7151,-0.7152,-0.7167,-0.7166,-0.7169,-0.7169,-0.7183,-0.7185,-0.718,-0.7194,-0.7195,-0.7185,-0.7171,-0.72,-0.7199,-0.7158,-0.7156,-0.7155,-0.7123,0,0,0,0,0,0,-0.7146,-0.7146,-0.7139,-0.7151,-0.7152,-0.7141,-0.7165,-0.7169,-0.7169,-0.7172,-0.7181,-0.7183,-0.7195,-0.7185,-0.7184,-0.7171,-0.7199,-0.7159,-0.7157,-0.7155,-0.7125,-0.7121,-0.7117,0,0,0,0,0,-0.7146,-0.7129,-0.7138,-0.7138,-0.7143,-0.714,-0.7141,-0.7155,-0.7168,-0.716,-0.7169,-0.7183,-0.7173,-0.7184,-0.7183,-0.717,-0.716,-0.7158,-0.7156,-0.7127,-0.7122,-0.7117,0,0,0,0,0,0,-0.7114,-0.7131,-0.7141,-0.7128,-0.7133,-0.7145,-0.7136,-0.7149,-0.715,-0.7152,-0.7169,-0.7171,-0.7159,-0.7164,-0.7175,-0.7151,-0.7169,-0.7166,-0.7148,-0.7142,-0.7138,-0.7136,-0.7199,0,0,0,0,0,-0.7106,-0.7103,-0.7117,-0.7104,-0.7106,-0.7121,-0.712,-0.7131,-0.7136,-0.7138,-0.7146,-0.7149,-0.7147,-0.7145,-0.7144,-0.7127,-0.7129,-0.7118,-0.7113,-0.711,-0.7107,-0.7097,-0.7092,-0.7147,-0.7147,-0.7147,0,0,-0.7088,-0.7097,-0.7094,-0.7098,-0.7103,-0.7098,-0.7122,-0.7116,-0.7113,-0.7137,-0.7127,-0.7134,-0.7139,-0.7125,-0.712,-0.7129,-0.7092,-0.7107,-0.7104,-0.7103,-0.7095,-0.7089,-0.7085,-0.7146,-0.7146,-0.7146,0,0,-0.7053,-0.706,-0.7049,-0.7054,-0.7062,-0.7072,-0.7069,-0.708,-0.7085,-0.7077,-0.7094,-0.7091,-0.7087,-0.709,-0.7091,-0.7058,-0.7071,-0.7057,-0.7034,-0.7025,-0.702,-0.7017,-0.7004,-0.6999,-0.7055,-0.7055,-0.7055,0,-0.703,-0.7025,-0.7042,-0.7035,-0.7036,-0.7059,-0.7048,-0.7052,-0.7058,-0.7058,-0.7069,-0.7064,-0.707,-0.7056,-0.7048,-0.7049,-0.7046,-0.7056,-0.702,-0.7016,-0.7013,-0.7001,-0.6996,-0.7053,-0.7053,-0.7054,-0.7054,0,-0.6995,-0.6991,-0.6982,-0.6988,-0.6988,-0.6979,-0.6995,-0.6993,-0.7004,-0.7013,-0.7004,-0.7011,-0.7012,-0.701,-0.702,-0.6998,-0.7003,-0.7017,-0.7035,-0.7006,-0.6994,-0.699,-0.7051,-0.7051,-0.7052,-0.7052,0,0,-0.6939,-0.6956,-0.6952,-0.6955,-0.6965,-0.6962,-0.6955,-0.6956,-0.6953,-0.6957,-0.695,-0.6947,-0.696,-0.6961,-0.6972,-0.6964,-0.6937,-0.6979,-0.6979,-0.6969,-0.6911,-0.69,-0.6894,-0.6946,-0.6945,-0.6945,-0.691,0,-0.6905,-0.6893,-0.6909,-0.6893,-0.6889,-0.6911,-0.6904,-0.6909,-0.6918,-0.6915,-0.6925,-0.6921,-0.6939,-0.694,-0.6933,-0.6941,-0.6925,-0.6944,-0.6938,-0.6938,-0.6934,-0.6889,-0.6876,-0.6844,-0.6906,-0.6905,-0.6905,0,-0.6863,-0.6866,-0.685,-0.6862,-0.6861,-0.6854,-0.6856,-0.6854,-0.6861,-0.6868,-0.6869,-0.6883,-0.6876,-0.6895,-0.6884,-0.6897,-0.6896,-0.69,-0.6899,-0.6898,-0.6918,-0.6884,-0.6834,-0.6828,-0.6899,-0.6899,-0.69,0,-0.6822,-0.6822,-0.6812,-0.6814,-0.6828,-0.6823,-0.6828,-0.6836,-0.6836,-0.6838,-0.6838,-0.6839,-0.6839,-0.6839,-0.6853,-0.6866,-0.684,-0.6861,-0.6844,-0.6844,-0.6836,-0.6836,-0.6783,-0.6838,-0.6838,-0.6838,-0.6839,0,-0.6781,-0.677,-0.6794,-0.6787,-0.6775,-0.6794,-0.6782,-0.6789,-0.6796,-0.6791,-0.6811,-0.6806,-0.6825,-0.6822,-0.6833,-0.6821,-0.6822,-0.6826,-0.6829,-0.6823,-0.6822,-0.6821,-0.6823,-0.6837,-0.6837,-0.6838,-0.6838,0,-0.6732,-0.6748,-0.6738,-0.6753,-0.6756,-0.6746,-0.6758,-0.6753,-0.6763,-0.6757,-0.6756,-0.6772,-0.6769,-0.6784,-0.6783,-0.6791,-0.6774,-0.6781,-0.6771,-0.6773,-0.6755,-0.6756,-0.6698,-0.6691,-0.6752,-0.6751,-0.6751,0,-0.6704,-0.6696,-0.671,-0.6709,-0.6713,-0.6711,-0.6711,-0.673,-0.6729,-0.6736,-0.6729,-0.6729,-0.6729,-0.6723,-0.6734,-0.6734,-0.674,-0.672,-0.674,-0.6735,-0.6738,-0.6738,-0.6737,-0.6715,-0.6714,-0.6714,-0.6713,0,-0.6652,-0.6661,-0.6661,-0.6663,-0.6663,-0.6666,-0.667,-0.6668,-0.6688,-0.6686,-0.6684,-0.6684,-0.6685,-0.6683,-0.6685,-0.669,-0.6704,-0.6707,-0.6703,-0.6696,-0.6691,-0.6692,-0.6758,-0.6708,-0.6708,-0.6709,-0.6709,-0.6709,-0.6612,-0.6606,-0.6615,-0.6614,-0.6619,-0.6623,-0.6618,-0.6629,-0.6628,-0.663,-0.6641,-0.6637,-0.6644,-0.6648,-0.6652,-0.6648,-0.6658,-0.6652,-0.665,-0.6648,-0.6644,-0.6693,-0.6649,-0.6649,-0.6649,-0.6649,-0.6649,0,-0.656,-0.6567,-0.6567,-0.6572,-0.6571,-0.6587,-0.6593,-0.6591,-0.6587,-0.6593,-0.6593,-0.659,-0.6589,-0.6601,-0.6601,-0.6596,-0.6602,-0.6595,-0.6594,-0.6595,-0.6637,-0.6639,-0.6589,-0.6589,-0.6589,-0.659,-0.659,-0.659,-0.6533,-0.6523,-0.6532,-0.6525,-0.6533,-0.6529,-0.6531,-0.6534,-0.6539,-0.6535,-0.6535,-0.6543,-0.6551,-0.6552,-0.6551,-0.6555,-0.6553,-0.6543,-0.6548,-0.6586,-0.6592,-0.6598,-0.66,-0.6543,-0.6543,-0.6507,-0.6507,-0.6506]}]]